NOZ3FC ENVA-EPKK

Flight info

Callsign NOZ3FC
Flight time N/A
Altitude 37000
Route EVNEN DCT ABUNO DCT LARMA DCT UWLER
Aircraft B38M/M-SDE1FGHILORVWXY/HB1

Departure

Time 2026-05-07 16:42
Airport Trondheim Airport, Værnes (ENVA)

Arrival

Time N/A
Airport Kraków John Paul II International Airport (EPKK)
Time Latitude Longitude Altitude Speed Heading
2026-05-07 16:18 63.45425 10.92276 41 ft 0 kts 270°
2026-05-07 16:35 63.45425 10.92277 41 ft 1 kts 270°
2026-05-07 16:35 63.45425 10.92332 41 ft 4 kts 271°
2026-05-07 16:35 63.45424 10.92381 39 ft 4 kts 285°
2026-05-07 16:36 63.45410 10.92422 41 ft 4 kts 337°
2026-05-07 16:36 63.45386 10.92432 40 ft 2 kts
2026-05-07 16:36 63.45385 10.92432 40 ft 2 kts
2026-05-07 16:38 63.45392 10.92432 44 ft 4 kts
2026-05-07 16:38 63.45455 10.92434 44 ft 12 kts
2026-05-07 16:38 63.45544 10.92421 42 ft 10 kts 350°
2026-05-07 16:39 63.45593 10.92499 44 ft 11 kts 81°
2026-05-07 16:39 63.45593 10.92688 47 ft 14 kts 89°
2026-05-07 16:39 63.45593 10.92922 50 ft 15 kts 90°
2026-05-07 16:39 63.45593 10.93158 48 ft 15 kts 90°
2026-05-07 16:40 63.45592 10.93387 55 ft 14 kts 90°
2026-05-07 16:40 63.45592 10.93607 56 ft 14 kts 90°
2026-05-07 16:40 63.45598 10.93817 57 ft 14 kts 69°
2026-05-07 16:40 63.45664 10.93985 60 ft 15 kts 43°
2026-05-07 16:41 63.45740 10.94135 57 ft 10 kts 20°
2026-05-07 16:41 63.45757 10.94036 60 ft 9 kts 266°
2026-05-07 16:41 63.45758 10.93806 59 ft 35 kts 270°
2026-05-07 16:41 63.45760 10.92594 46 ft 118 kts 270°
2026-05-07 16:42 63.45764 10.91148 42 ft 162 kts 268°
2026-05-07 16:42 63.45779 10.88381 539 ft 188 kts 270°
2026-05-07 16:42 63.45795 10.85471 1882 ft 181 kts 270°
2026-05-07 16:42 63.45800 10.81512 2833 ft 208 kts 270°
2026-05-07 16:43 63.45801 10.79232 3220 ft 222 kts 270°
2026-05-07 16:43 63.45801 10.75873 4497 ft 213 kts 270°
2026-05-07 16:43 63.45801 10.72504 5440 ft 221 kts 270°
2026-05-07 16:43 63.45799 10.69060 6455 ft 222 kts 270°
2026-05-07 16:44 63.45796 10.65568 7361 ft 227 kts 269°
2026-05-07 16:44 63.45792 10.62057 8270 ft 230 kts 269°
2026-05-07 16:44 63.45767 10.58452 9133 ft 236 kts 264°
2026-05-07 16:44 63.45168 10.54955 9694 ft 254 kts 229°
2026-05-07 16:45 63.43747 10.52626 10524 ft 259 kts 205°
2026-05-07 16:45 63.41925 10.51773 10986 ft 281 kts 180°
2026-05-07 16:45 63.39964 10.52867 11399 ft 305 kts 154°
2026-05-07 16:45 63.38298 10.56004 11841 ft 327 kts 127°
2026-05-07 16:46 63.37392 10.60735 12367 ft 342 kts 98°
2026-05-07 16:46 63.37423 10.66089 13065 ft 350 kts 86°
2026-05-07 16:46 63.37463 10.71543 13878 ft 353 kts 90°
2026-05-07 16:46 63.37463 10.77071 14589 ft 358 kts 90°
2026-05-07 16:47 63.37460 10.82653 15297 ft 362 kts 90°
2026-05-07 16:47 63.37455 10.88243 15977 ft 365 kts 90°
2026-05-07 16:47 63.37447 10.93941 16647 ft 370 kts 90°